Weather History for KASL - October, 2012

Change the Weather History Date:

Saturday, October 6, 2012

  Actual Average (KGGG) Record (KGGG)
Temperature  
Mean Temperature 55 °F 69 °F  
Max Temperature 64 °F 81 °F 96 °F (1939)
Min Temperature 46 °F 57 °F 41 °F (2010)
Degree Days  
Heating Degree Days 10 1  
Month to date heating degree days 6  
Since 1 July heating degree days 12  
Cooling Degree Days 0 5  
Month to date cooling degree days 35  
Year to date cooling degree days 2314  
Growing Degree Days 5 (Base 50)    
Moisture  
Dew Point 47 °F    
Average Humidity 78    
Maximum Humidity 88    
Minimum Humidity 66    
Precipitation  
Precipitation 0.00 in 0.14 in 3.31 in (1998)
Month to date precipitation 0.92  
Year to date precipitation 34.91  
Snow  
Snow 0.00 in - - ()
Month to date snowfall  
Since 1 July snowfall  
Since 1 September snowfall  
Snow Depth -    
Sea Level Pressure  
Sea Level Pressure 30.15 in    
Wind  
Wind Speed 6 mph (North)    
Max Wind Speed 10 mph    
Max Gust Speed -    
Visibility 10 miles    
Events      
T = Trace of Precipitation, MM = Missing Value Source: NWS Daily Summary

Daily Weather History Graph

Daily Weather History Graph

Search for Another Location

Airport or City:

Trip Planner

Search our weather history database for the weather conditions in past years. The results will help you decide how hot, cold, wet, or windy it might be!

Date:

Astronomy

Oct. 06, 2012 Rise Set
Actual Time 7:15 AM CDT 6:54 PM CDT
Civil Twilight 6:50 AM CDT 7:19 PM CDT
Nautical Twilight 6:21 AM CDT 7:47 PM CDT
Astronomical Twilight 5:53 AM CDT 8:16 PM CDT
Moon 11:25 PM CDT (10/6) 12:55 PM CDT (10/6)
Length of Visible Light 12h 28m
Length of Day
11h 39m
Waning Gibbous, 65% of the Moon is Illuminated
Oct 6
Waning Gibbous
Oct 8
Last Quarter
Oct 15
New
Oct 21
First Quarter
Oct 29
Full

Hourly Weather History & Observations

Time (CDT) Temp. Windchill Dew Point Humidity Pressure Visibility Wind Dir Wind Speed Gust Speed Precip Events Conditions
12:15 AM 64.4 °F - 59.0 °F 83% 30.06 in 10.0 mi NNW 9.2 mph - N/A   Scattered Clouds
12:35 AM 64.4 °F - 59.0 °F 83% 30.07 in 10.0 mi NNW 10.4 mph - N/A   Scattered Clouds
12:55 AM 64.4 °F - 59.0 °F 83% 30.06 in 10.0 mi North 4.6 mph - N/A   Overcast
1:15 AM 64.4 °F - 59.0 °F 83% 30.06 in 10.0 mi NNW 6.9 mph - N/A   Overcast
1:35 AM 64.4 °F - 59.0 °F 83% 30.07 in 10.0 mi NNW 8.1 mph - N/A   Overcast
1:55 AM 64.4 °F - 59.0 °F 83% 30.07 in 10.0 mi NNW 6.9 mph - N/A   Overcast
2:15 AM 64.4 °F - 59.0 °F 83% 30.07 in 10.0 mi NNW 6.9 mph - N/A   Overcast
2:35 AM 64.4 °F - 59.0 °F 83% 30.08 in 10.0 mi NNW 6.9 mph - N/A   Overcast
2:55 AM 64.4 °F - 59.0 °F 83% 30.07 in 10.0 mi North 3.5 mph - N/A   Overcast
3:15 AM 64.4 °F - 59.0 °F 83% 30.07 in 10.0 mi North 3.5 mph - N/A   Overcast
3:35 AM 64.4 °F - 59.0 °F 83% 30.07 in 10.0 mi North 3.5 mph - N/A   Overcast
3:55 AM 62.6 °F - 59.0 °F 88% 30.08 in 10.0 mi North 8.1 mph - N/A   Overcast
4:35 AM 59.0 °F - 51.8 °F 77% 30.09 in 10.0 mi NNE 6.9 mph - N/A   Overcast
4:55 AM 57.2 °F - 51.8 °F 82% 30.10 in 10.0 mi North 6.9 mph - N/A   Overcast
5:15 AM 57.2 °F - 51.8 °F 82% 30.11 in 10.0 mi North 4.6 mph - N/A   Overcast
5:35 AM 55.4 °F - 50.0 °F 82% 30.11 in 10.0 mi NNE 8.1 mph - N/A   Overcast
5:55 AM 55.4 °F - 50.0 °F 82% 30.11 in 10.0 mi NNE 4.6 mph - N/A   Overcast
6:15 AM 55.4 °F - 50.0 °F 82% 30.12 in 10.0 mi NNE 5.8 mph - N/A   Overcast
6:35 AM 55.4 °F - 50.0 °F 82% 30.12 in 10.0 mi North 4.6 mph - N/A   Overcast
6:55 AM 55.4 °F - 50.0 °F 82% 30.13 in 10.0 mi North 5.8 mph - N/A   Overcast
7:15 AM 55.4 °F - 50.0 °F 82% 30.13 in 10.0 mi NNE 4.6 mph - N/A   Overcast
7:35 AM 55.4 °F - 50.0 °F 82% 30.14 in 10.0 mi North 6.9 mph - N/A   Overcast
7:55 AM 55.4 °F - 50.0 °F 82% 30.14 in 10.0 mi North 5.8 mph - N/A   Overcast
8:15 AM 53.6 °F - 48.2 °F 82% 30.15 in 10.0 mi North 6.9 mph - N/A   Overcast
8:35 AM 51.8 °F - 48.2 °F 88% 30.15 in 7.0 mi North 4.6 mph - N/A   Overcast
9:15 AM 51.8 °F - 48.2 °F 88% 30.17 in 10.0 mi NNE 4.6 mph - N/A   Overcast
9:35 AM 51.8 °F - 48.2 °F 88% 30.18 in 10.0 mi North 3.5 mph - N/A   Overcast
9:55 AM 51.8 °F - 46.4 °F 82% 30.18 in 10.0 mi NNE 5.8 mph - N/A   Overcast
10:15 AM 51.8 °F - 46.4 °F 82% 30.17 in 10.0 mi NNE 5.8 mph - N/A   Overcast
10:35 AM 51.8 °F - 46.4 °F 82% 30.18 in 10.0 mi NE 4.6 mph - N/A   Overcast
10:55 AM 51.8 °F - 46.4 °F 82% 30.17 in 10.0 mi NE 8.1 mph - N/A   Overcast
11:15 AM 51.8 °F - 46.4 °F 82% 30.17 in 10.0 mi NNE 5.8 mph - N/A   Overcast
11:35 AM 51.8 °F - 46.4 °F 82% 30.17 in 10.0 mi NNE 6.9 mph - N/A   Overcast
11:55 AM 51.8 °F - 46.4 °F 82% 30.17 in 10.0 mi NNE 4.6 mph - N/A   Overcast
12:15 PM 51.8 °F - 46.4 °F 82% 30.17 in 10.0 mi North 5.8 mph - N/A   Overcast
12:35 PM 51.8 °F - 48.2 °F 88% 30.17 in 7.0 mi North 5.8 mph - N/A   Overcast
12:55 PM 51.8 °F - 48.2 °F 88% 30.16 in 10.0 mi North 5.8 mph - N/A   Overcast
1:15 PM 51.8 °F - 46.4 °F 82% 30.16 in 10.0 mi NNE 5.8 mph - N/A   Overcast
1:35 PM 51.8 °F - 44.6 °F 76% 30.15 in 10.0 mi North 4.6 mph - N/A   Overcast
1:55 PM 51.8 °F - 46.4 °F 82% 30.15 in 10.0 mi North 4.6 mph - N/A   Overcast
2:15 PM 51.8 °F - 46.4 °F 82% 30.14 in 7.0 mi North 3.5 mph - N/A   Overcast
2:35 PM 51.8 °F - 46.4 °F 82% 30.14 in 10.0 mi North 5.8 mph - N/A   Overcast
2:55 PM 51.8 °F - 44.6 °F 76% 30.14 in 10.0 mi North 6.9 mph - N/A   Overcast
3:15 PM 51.8 °F - 44.6 °F 76% 30.14 in 10.0 mi NNE 4.6 mph - N/A   Overcast
3:35 PM 51.8 °F - 44.6 °F 76% 30.14 in 10.0 mi North 4.6 mph - N/A   Overcast
3:55 PM 51.8 °F - 44.6 °F 76% 30.14 in 10.0 mi North 5.8 mph - N/A   Overcast
4:15 PM 51.8 °F - 44.6 °F 76% 30.14 in 10.0 mi North 5.8 mph - N/A   Overcast
4:35 PM 51.8 °F - 42.8 °F 71% 30.14 in 10.0 mi North 5.8 mph - N/A   Overcast
4:55 PM 51.8 °F - 44.6 °F 76% 30.14 in 10.0 mi Calm Calm - N/A   Overcast
5:15 PM 51.8 °F - 44.6 °F 76% 30.14 in 10.0 mi Calm Calm - N/A   Overcast
5:35 PM 51.8 °F - 42.8 °F 71% 30.14 in 10.0 mi North 6.9 mph - N/A   Overcast
5:55 PM 51.8 °F - 42.8 °F 71% 30.16 in 10.0 mi North 5.8 mph - N/A   Overcast
6:15 PM 51.8 °F - 42.8 °F 71% 30.15 in 10.0 mi NNE 3.5 mph - N/A   Overcast
6:35 PM 51.8 °F - 42.8 °F 71% 30.16 in 10.0 mi North 4.6 mph - N/A   Overcast
6:55 PM 51.8 °F - 41.0 °F 67% 30.16 in 10.0 mi North 5.8 mph - N/A   Overcast
7:15 PM 50.0 °F - 39.2 °F 66% 30.18 in 10.0 mi North 6.9 mph - N/A   Overcast
7:35 PM 50.0 °F - 39.2 °F 66% 30.19 in 10.0 mi North 5.8 mph - N/A   Overcast
7:55 PM 50.0 °F - 39.2 °F 66% 30.18 in 10.0 mi North 5.8 mph - N/A   Overcast
8:15 PM 50.0 °F - 39.2 °F 66% 30.19 in 10.0 mi North 5.8 mph - N/A   Overcast
8:35 PM 50.0 °F - 39.2 °F 66% 30.19 in 10.0 mi NNE 4.6 mph - N/A   Overcast
8:55 PM 50.0 °F - 39.2 °F 66% 30.19 in 10.0 mi North 6.9 mph - N/A   Overcast
9:15 PM 50.0 °F - 41.0 °F 71% 30.21 in 10.0 mi North 3.5 mph - N/A   Overcast
9:35 PM 50.0 °F - 41.0 °F 71% 30.22 in 10.0 mi NNE 6.9 mph - N/A   Overcast
9:55 PM 50.0 °F - 41.0 °F 71% 30.22 in 10.0 mi NNE 4.6 mph - N/A   Overcast
10:15 PM 50.0 °F - 41.0 °F 71% 30.22 in 10.0 mi NNE 5.8 mph - N/A   Overcast
10:35 PM 50.0 °F - 41.0 °F 71% 30.23 in 10.0 mi North 5.8 mph - N/A   Overcast
10:55 PM 50.0 °F - 41.0 °F 71% 30.24 in 10.0 mi North 3.5 mph - N/A   Overcast
11:15 PM 50.0 °F - 41.0 °F 71% 30.25 in 10.0 mi North 5.8 mph - N/A   Overcast
11:35 PM 46.4 °F 44.3 °F 37.4 °F 71% 30.24 in 10.0 mi North 4.6 mph - N/A   Overcast
11:55 PM 46.4 °F 44.3 °F 37.4 °F 71% 30.25 in 10.0 mi North 4.6 mph - N/A   Overcast